TimeEST,TemperatureF,Dew PointF,Humidity,Sea Level PressureIn,VisibilityMPH,Wind Direction,Wind SpeedMPH,Gust SpeedMPH,PrecipitationIn,Events,Conditions,WindDirDegrees,DateUTC
12:52 AM,53.1,51.1,93,29.73,6.0,SE,11.5,-,0.05,Rain,Light Rain,140,2011-11-30 05:52:00
1:52 AM,53.1,52.0,96,29.69,2.5,SSE,3.5,-,0.15,Rain,Heavy Rain,160,2011-11-30 06:52:00
2:07 AM,53.6,51.8,94,29.66,4.0,SE,9.2,-,0.06,Rain,Heavy Rain,130,2011-11-30 07:07:00
2:44 AM,55.4,53.6,94,29.62,2.5,SE,8.1,-,0.21,Rain,Heavy Rain,140,2011-11-30 07:44:00
2:52 AM,55.0,53.1,93,29.60,3.0,SE,8.1,-,0.24,Rain,Heavy Rain,130,2011-11-30 07:52:00
3:11 AM,55.4,53.6,94,29.59,1.8,SSE,4.6,-,0.10,Rain,Heavy Rain,160,2011-11-30 08:11:00
3:21 AM,55.4,53.6,94,29.58,3.0,Calm,Calm,-,0.15,Rain,Heavy Rain,0,2011-11-30 08:21:00
3:29 AM,55.4,53.6,94,29.57,1.8,SE,4.6,-,0.21,Rain,Heavy Rain,140,2011-11-30 08:29:00
3:41 AM,55.4,53.6,94,29.55,3.0,SE,8.1,-,0.25,Rain,Rain,130,2011-11-30 08:41:00
3:52 AM,57.0,54.0,89,29.57,9.0,SSE,10.4,19.6,0.26,Rain,Light Rain,150,2011-11-30 08:52:00
4:52 AM,55.9,54.0,93,29.51,6.0,SE,9.2,-,0.04,Rain,Rain,130,2011-11-30 09:52:00
5:52 AM,57.0,54.0,89,29.49,10.0,SE,13.8,-,0.01,,Overcast,140,2011-11-30 10:52:00
6:02 AM,57.2,53.6,88,29.48,10.0,SE,11.5,-,0.00,Rain,Light Rain,140,2011-11-30 11:02:00
6:09 AM,57.2,53.6,88,29.48,10.0,SSE,11.5,-,0.00,,Overcast,160,2011-11-30 11:09:00
6:50 AM,57.2,53.6,88,29.50,10.0,South,10.4,-,0.00,,Overcast,170,2011-11-30 11:50:00
6:52 AM,57.9,53.1,84,29.51,10.0,South,11.5,19.6,0.00,,Overcast,170,2011-11-30 11:52:00
7:04 AM,57.2,51.8,82,29.50,10.0,South,12.7,21.9,0.00,Rain,Light Rain,170,2011-11-30 12:04:00
7:52 AM,55.0,46.0,72,29.49,10.0,South,10.4,21.9,0.00,,Clear,180,2011-11-30 12:52:00
9:52 AM,54.0,37.9,55,29.51,10.0,SSW,11.5,17.3,N/A,,Clear,210,2011-11-30 14:52:00
10:52 AM,54.0,36.0,51,29.51,10.0,WSW,10.4,20.7,N/A,,Clear,240,2011-11-30 15:52:00
11:52 AM,53.1,35.1,50,29.49,10.0,SW,12.7,20.7,N/A,,Partly Cloudy,220,2011-11-30 16:52:00
12:52 PM,52.0,34.0,50,29.50,10.0,WSW,6.9,16.1,N/A,,Mostly Cloudy,250,2011-11-30 17:52:00
1:52 PM,51.1,33.1,50,29.52,10.0,SW,5.8,-,N/A,,Overcast,230,2011-11-30 18:52:00
3:52 PM,46.9,37.0,68,29.57,10.0,SSW,4.6,-,N/A,,Mostly Cloudy,210,2011-11-30 20:52:00
4:52 PM,46.0,35.1,66,29.59,10.0,SW,8.1,-,N/A,,Mostly Cloudy,220,2011-11-30 21:52:00
5:52 PM,44.1,33.1,65,29.61,10.0,South,6.9,-,N/A,,Partly Cloudy,180,2011-11-30 22:52:00
6:52 PM,43.0,30.9,62,29.65,10.0,WSW,8.1,16.1,N/A,,Mostly Cloudy,240,2011-11-30 23:52:00
7:52 PM,43.0,28.9,58,29.70,10.0,Calm,Calm,-,N/A,,Overcast,0,2011-12-01 00:52:00
8:52 PM,43.0,28.9,58,29.72,10.0,Calm,Calm,-,N/A,,Overcast,0,2011-12-01 01:52:00
9:52 PM,42.1,28.9,60,29.73,10.0,Calm,Calm,-,N/A,,Overcast,0,2011-12-01 02:52:00
10:52 PM,41.0,30.9,67,29.76,10.0,Calm,Calm,-,N/A,,Overcast,0,2011-12-01 03:52:00
11:38 PM,39.2,32.0,75,29.76,10.0,Variable,3.5,-,N/A,,Overcast,0,2011-12-01 04:38:00
11:52 PM,39.9,30.9,70,29.79,10.0,Variable,4.6,-,N/A,,Overcast,0,2011-12-01 04:52:00